Home > Weather > Sagamihara > Past weeks

Flag for Japan Past Weather in Sagamihara, Japan — Yesterday and Last 2 Weeks

Now
73 °F

Fog.


Feels Like: 70 °F
Forecast: 72 / 89 °F
Wind: 2 mph from Southeast

Location: Yokota Ab

Current Time: Jul 2, 2016 at 3:53:19 AM

Latest Report: Jul 2, 2016 at 2:58 AM


Visibility: 6 mi

Pressure: 29.94 "Hg

Humidity: 94%

Dew Point: 72 °F

Location of SagamiharaLocation

Past Weather in Sagamihara — Graph

°F

Sagamihara Temperature Yesterday

Maximum temperature yesterday: 87 °F (at 2:58 PM)
Minimum temperature yesterday: 72 °F (at 4:58 AM)
Average temperature yesterday: 77 °F

High & Low Weather Summary for the Past Weeks

 TemperatureHumidityPressure
High88 °F (Jun 18, 12:58 PM)100% (Jun 17, 4:04 AM)30.05 "Hg (Jun 17, 4:04 AM)
Low62 °F (Jun 28, 5:58 AM)34% (Jun 18, 8:58 AM)29.49 "Hg (Jun 25, 3:58 AM)
Average73 °F80%29.84 "Hg
* Reported Jun 17 1:04 AM — Jul 2 1:58 AM, Sagamihara, Weather by CustomWeather, © 2016

Note: Actual official high and low records may vary slightly from our data, if they occured in-between our weather recording intervals... More about our weather records

Advertising

Sagamihara Weather History for the Previous 24 Hours

Scroll right to see more
 ConditionsComfort  
Time TempWeatherWind HumidityBarometerVisibility
1:58 AM
Sat, Jul 2
72 °FFog.5 mph93%29.95 "Hg5 mi
12:58 AM72 °FFog.6 mph93%29.95 "Hg6 mi
12:02 AM73 °FLow clouds.6 mph89%29.98 "Hg7 mi
11:58 PM
Fri, Jul 1
73 °FLow clouds.7 mph91%29.97 "Hg7 mi
11:00 PM73 °FPassing clouds.7 mph89%29.99 "Hg7 mi
10:58 PM73 °FPassing clouds.7 mph91%29.98 "Hg7 mi
9:58 PM73 °FClear.8 mph90%29.99 "Hg7 mi
8:58 PM73 °FClear.8 mph87%29.98 "Hg10 mi
7:58 PM75 °FClear.13 mph83%29.96 "Hg10 mi
6:58 PM78 °FSunny.10 mph73%29.96 "Hg10 mi
5:58 PM81 °FSunny.13 mph68%29.94 "Hg10 mi
4:58 PM84 °FSunny.13 mph66%29.93 "Hg10 mi
3:58 PM85 °FSunny.13 mph65%29.92 "Hg10 mi
2:58 PM87 °FSunny.8 mph55%29.90 "Hg8 mi
1:58 PM86 °FSunny.7 mph58%29.92 "Hg5 mi
12:58 PM85 °FScattered clouds.1 mph61%29.94 "Hg10 mi
11:58 AM83 °FBroken clouds.5 mph66%29.95 "Hg10 mi
10:58 AM81 °FBroken clouds.5 mph71%29.96 "Hg10 mi
9:58 AM79 °FScattered clouds.1 mph78%29.96 "Hg7 mi
8:58 AM76 °FSunny.1 mph83%29.97 "Hg6 mi
7:58 AM74 °FSunny.No wind88%29.97 "Hg6 mi
6:58 AM74 °FPassing clouds.2 mph87%29.97 "Hg8 mi
5:58 AM73 °FPartly sunny.5 mph87%29.97 "Hg8 mi
4:58 AM72 °FBroken clouds.1 mph88%29.94 "Hg9 mi
3:58 AM73 °FPassing clouds.No wind86%29.93 "Hg10 mi
Weather by CustomWeather, © 2016

See weather overviewHow to use our weather pages